ECMWFNIL_500_spd_000.txt.gz
Wind_Speed
52 51 51 52 53 53 54 54 53 52 50 48 48 49 51 52 53 55 56 59 61 63 63 62 61 60 59 59 58 58 57 56 55 55 56 56 57 59 60 61 62 62
52 53 53 54 55 55 56 56 55 53 51 49 48 49 50 51 53 56 57 58 60 62 63 63 62 61 60 59 59 59 59 59 58 59 59 60 61 61 61 61 61 61
52 53 54 55 56 57 56 55 54 53 51 50 49 49 50 51 52 54 56 58 58 59 61 62 62 61 60 59 59 60 60 61 61 60 60 61 60 60 60 60 61 62
52 53 54 55 56 56 55 55 54 54 53 53 52 51 51 51 53 54 55 55 56 58 59 60 60 59 59 58 59 59 60 60 59 58 58 59 59 59 60 61 62 63
51 52 53 54 55 55 55 55 55 56 57 57 56 55 52 51 52 53 53 53 53 54 56 57 57 56 56 55 56 57 58 58 58 58 58 59 60 61 62 63 64 66
52 53 54 54 55 56 56 56 56 57 58 59 59 57 54 51 51 52 51 51 50 51 52 53 54 54 54 55 56 58 59 60 60 60 61 62 62 63 64 65 66 68
55 55 55 56 56 56 57 58 58 57 58 59 59 56 53 52 52 52 51 51 50 50 50 52 54 55 56 57 59 61 62 62 62 62 63 64 64 65 66 67 68 69
57 56 56 57 58 59 59 60 59 59 60 59 57 55 54 53 52 52 52 51 50 51 51 53 55 56 57 59 61 62 62 63 63 64 65 65 65 66 67 68 69 70
59 59 59 59 60 61 61 61 61 61 60 58 56 56 54 53 52 52 51 51 51 51 52 54 56 57 58 58 59 60 61 62 63 64 64 64 65 66 66 67 68 68
61 61 62 62 61 61 60 61 62 61 60 58 57 56 53 51 51 51 50 51 51 53 55 57 59 60 60 59 59 61 63 63 64 63 63 63 64 64 65 65 65 65
63 63 64 63 61 59 59 61 62 61 60 59 57 54 52 51 51 51 52 53 55 57 58 59 61 61 61 61 62 64 65 64 63 61 61 62 63 64 64 64 65 66
67 66 63 61 58 58 59 60 60 59 59 58 56 54 53 53 54 55 57 59 59 59 59 60 61 62 62 63 63 64 64 63 61 61 61 62 64 65 66 67 68 68
66 63 60 58 58 59 60 60 58 57 56 55 55 56 57 57 59 60 62 62 61 60 60 61 62 62 61 61 62 63 63 63 62 62 63 65 66 67 68 69 69 68
62 60 58 58 59 60 61 59 57 56 55 55 55 57 60 62 63 64 64 62 61 60 61 61 61 60 60 60 62 64 64 64 65 66 66 68 69 69 69 69 67 66
59 59 58 59 59 60 60 58 57 57 57 58 58 59 62 64 65 65 63 61 61 61 61 61 61 61 62 63 65 65 66 66 66 67 67 67 67 67 66 66 65 64
59 58 58 58 57 57 57 57 57 58 59 60 61 61 62 64 64 64 62 61 61 61 61 60 60 61 62 63 64 64 64 64 63 63 63 63 63 62 63 63 63 64
58 58 57 56 55 55 54 55 56 58 59 60 61 61 62 64 64 63 61 60 60 60 59 59 58 58 59 59 59 59 59 59 59 59 59 59 59 60 61 61 62 63
57 57 56 55 54 53 53 54 56 57 58 59 60 62 63 64 64 63 60 59 59 58 57 56 55 56 56 56 56 55 55 56 56 57 57 58 59 60 61 62 63 64
56 56 55 54 52 52 54 55 57 59 60 61 62 63 64 65 64 63 61 60 58 56 54 53 53 53 54 54 55 55 55 55 55 55 56 57 59 60 62 63 64 65
57 56 55 54 55 55 56 57 58 59 61 63 64 65 65 66 66 64 62 59 56 54 53 52 52 53 54 55 55 56 55 54 53 53 55 56 58 59 59 60 61 62
57 56 56 57 58 57 57 57 58 60 62 64 65 67 67 67 67 65 60 57 54 52 52 52 52 53 55 56 56 57 56 54 54 55 57 58 59 59 59 60 60 60
57 57 57 57 58 59 58 58 58 60 63 65 67 68 68 69 68 63 58 56 53 51 51 51 52 53 55 56 58 59 58 56 56 58 60 61 62 63 63 63 63 63
59 59 59 58 59 60 60 60 60 61 63 65 66 67 69 70 67 61 58 57 54 51 51 53 54 55 56 58 60 61 61 60 60 61 62 63 65 66 66 66 66 66
63 62 61 61 61 61 62 61 61 61 62 63 65 66 69 71 67 61 59 59 55 53 54 56 57 58 59 61 62 64 64 64 63 64 65 66 66 67 67 67 67 68
65 63 63 64 64 63 63 62 62 62 63 64 65 65 67 69 66 61 60 60 57 56 58 60 61 62 64 63 64 66 67 66 66 66 66 66 66 66 67 67 68 70
65 63 63 65 65 65 64 63 63 63 63 64 64 64 64 66 65 64 64 63 62 61 62 64 65 66 66 64 64 65 65 66 67 68 69 68 68 68 69 70 71 73

ECMWFNIL_500_spd_003.txt.gz
Wind_Speed
46 46 46 46 46 47 48 49 51 52 53 53 53 52 51 49 49 50 51 52 53 54 54 55 57 58 59 60 61 61 62 62 61 60 58 57 56 55 54 53 53 54
47 47 47 48 48 49 50 51 52 54 54 55 54 53 52 50 50 50 51 52 53 54 55 56 57 58 59 61 62 61 62 62 62 61 60 59 57 55 54 54 55 56
48 48 49 50 51 52 53 53 54 54 55 54 54 53 52 52 51 50 50 51 52 54 55 55 56 58 59 61 62 62 62 62 62 62 61 60 58 56 55 55 56 56
49 49 49 51 52 53 53 54 54 55 55 55 54 54 54 53 52 51 51 52 53 55 56 56 56 57 59 60 62 62 62 62 63 62 62 61 59 57 55 54 55 55
51 50 50 51 52 52 53 54 55 55 56 56 56 55 55 54 54 54 54 54 55 57 58 58 57 57 58 60 61 61 61 61 62 63 62 61 59 57 55 55 55 56
52 52 51 51 52 53 54 55 55 56 57 57 57 57 56 56 56 56 56 57 58 59 60 60 60 59 59 59 59 59 59 59 60 61 61 61 59 58 57 58 58 59
53 53 52 52 52 54 55 57 59 59 59 59 60 60 58 58 58 58 59 60 61 62 62 62 63 62 61 60 59 59 58 57 58 59 59 60 60 60 60 60 60 61
55 54 53 53 53 54 55 57 59 61 62 62 61 61 61 61 60 60 61 63 64 64 64 64 64 62 61 61 60 59 58 56 56 56 57 58 59 60 60 60 61 61
57 56 55 55 55 54 54 54 56 59 62 63 62 63 63 62 62 62 63 65 66 66 66 66 65 62 61 60 60 59 58 57 56 56 57 58 59 60 61 62 63 64
61 59 58 58 56 56 55 55 55 56 59 61 62 63 63 63 62 63 65 66 66 66 67 66 65 63 61 60 59 59 58 58 59 60 61 62 63 64 65 66 67 67
63 62 60 58 57 57 57 57 57 57 58 60 62 63 64 65 64 64 65 66 66 66 66 66 65 64 62 60 60 60 59 60 62 63 65 66 67 68 69 69 69 69
63 63 61 60 58 57 57 58 59 59 60 61 62 64 65 67 66 64 63 64 64 65 65 65 66 65 63 62 61 61 61 63 65 67 68 69 70 70 70 69 69 69
63 63 62 61 59 58 58 59 60 59 60 60 61 64 66 66 66 64 62 62 64 64 65 65 65 65 64 63 63 63 63 65 67 68 69 70 70 70 69 69 69 69
64 63 62 61 61 60 60 59 59 59 59 60 61 64 65 65 64 63 62 62 64 64 64 64 63 63 63 63 64 64 65 66 67 68 69 69 69 69 69 69 69 68
64 64 63 63 62 62 62 61 61 61 62 62 63 64 64 63 63 62 62 62 64 65 65 64 63 62 63 63 64 64 65 66 67 68 69 69 69 69 69 70 69 68
68 68 68 66 65 65 66 67 67 67 67 66 64 63 63 62 62 62 62 63 65 65 64 63 62 62 62 62 62 63 65 66 66 67 68 68 69 70 70 70 68 66
73 73 72 70 69 68 69 70 71 71 69 68 66 65 64 63 63 62 62 63 65 64 63 62 61 60 61 61 62 63 63 63 64 65 66 67 68 69 69 68 66 63
76 76 74 72 70 70 72 73 74 72 70 69 67 66 66 65 64 63 63 63 63 61 60 59 60 60 61 62 62 63 63 64 65 66 66 67 66 65 64 63 62 60
79 79 77 76 74 74 75 76 75 73 70 69 68 68 68 67 66 65 63 61 59 58 59 60 60 61 62 63 64 65 67 67 66 65 64 63 61 59 58 58 58 58
83 82 81 81 79 78 75 74 73 71 69 69 70 70 70 69 67 64 61 60 58 57 58 59 59 61 63 64 64 65 64 63 62 60 59 57 55 55 55 55 57 57
85 85 85 84 82 78 74 72 71 70 69 70 71 72 72 71 67 64 61 59 57 56 56 57 59 62 64 63 62 61 60 60 60 57 55 54 52 52 53 54 56 57
85 85 85 84 81 77 73 72 72 71 71 72 74 74 73 70 66 64 61 59 57 55 55 57 60 62 62 61 61 60 58 60 62 58 55 54 53 53 54 54 56 57
83 83 82 80 78 76 74 73 73 73 74 75 75 74 71 67 64 62 61 59 57 55 55 58 61 61 60 59 59 58 57 60 63 61 57 55 54 55 55 56 57 59
80 79 78 77 76 76 76 75 74 74 75 75 73 68 64 64 64 62 61 59 57 56 59 62 62 59 58 58 56 56 57 61 63 61 58 57 57 58 58 58 60 61
79 78 77 77 77 77 78 77 77 77 75 74 72 69 66 66 66 64 62 60 58 59 62 63 61 60 60 60 58 58 59 61 63 62 61 62 62 61 60 60 62 64
79 78 77 76 76 78 78 77 76 76 74 70 69 69 70 70 68 65 64 62 61 62 63 63 62 62 62 62 62 62 62 63 65 65 65 65 65 64 63 63 64 66

ECMWFNIL_500_spd_006.txt.gz
Wind_Speed
49 50 50 51 50 48 47 46 46 46 46 46 46 47 48 48 49 50 50 50 50 50 49 49 49 49 50 50 51 52 52 52 53 53 53 52 51 52 52 53 53 53
49 50 51 51 51 49 49 49 49 49 49 49 48 49 49 50 50 51 51 52 51 51 51 50 50 50 51 51 52 52 52 52 52 52 52 52 52 52 52 53 53 54
50 51 52 52 52 51 52 52 52 52 52 51 51 51 51 52 53 53 53 53 53 52 51 51 51 51 52 52 52 51 52 52 52 52 51 52 53 53 54 54 54 54
50 51 52 53 54 54 54 53 53 53 53 53 53 54 55 55 56 56 55 55 54 53 52 52 52 52 53 53 52 52 52 52 52 51 51 53 54 55 56 57 57 57
52 52 53 54 55 55 55 54 54 54 55 56 56 57 58 58 58 58 57 57 56 55 54 53 53 54 54 53 53 54 54 54 53 52 53 55 56 57 57 59 60 60
54 55 55 56 56 56 56 55 55 56 57 58 59 60 60 60 60 60 60 60 59 59 58 56 56 55 55 54 55 55 56 56 56 55 55 56 57 58 58 60 61 61
57 59 59 59 59 59 58 58 58 59 59 59 60 60 60 60 60 61 61 61 62 62 61 61 60 59 57 56 56 56 57 58 58 57 58 59 60 60 60 61 62 62
62 64 64 63 62 62 62 62 61 60 61 62 62 61 61 61 61 61 62 62 63 63 64 64 64 63 61 59 57 57 58 59 59 59 60 61 62 62 62 62 62 61
66 67 69 68 66 66 67 65 63 62 63 64 64 63 63 62 61 62 63 63 64 65 66 67 66 66 64 62 60 59 60 61 61 61 61 61 62 62 63 62 62 61
67 68 71 72 71 70 70 69 66 65 64 64 65 65 65 64 64 64 65 65 66 67 68 69 69 68 67 65 63 62 62 63 63 64 63 62 62 62 63 62 61 62
68 69 71 72 73 74 73 72 71 68 66 66 67 68 68 68 68 68 68 68 68 68 69 70 71 70 69 66 65 64 65 65 66 67 67 64 62 61 62 61 62 63
69 69 70 71 73 76 76 76 74 73 71 70 71 72 72 72 72 73 72 71 69 68 67 68 69 69 68 67 65 64 66 67 69 70 70 67 63 61 61 62 62 64
68 69 70 72 74 77 79 80 79 78 77 76 75 75 76 76 77 77 76 73 69 65 63 64 65 66 66 66 65 65 66 69 71 71 71 68 65 62 62 62 63 65
71 70 70 71 72 75 77 81 83 84 83 83 82 80 80 80 80 80 79 75 69 64 62 62 63 63 63 63 63 65 66 67 69 70 71 70 67 65 64 63 64 65
76 74 73 73 73 74 75 78 81 84 85 86 86 86 85 83 82 82 81 75 68 65 65 64 63 62 62 62 64 65 66 67 69 70 72 72 70 69 67 65 64 63
80 79 79 78 79 79 80 80 81 82 83 85 87 87 85 83 81 82 80 74 69 68 69 68 67 65 64 64 66 67 69 70 70 71 72 72 72 72 70 67 64 62
82 82 83 83 83 83 83 84 84 84 83 83 84 84 81 80 80 79 77 73 71 72 71 70 68 66 65 65 66 68 70 71 71 70 71 72 73 72 70 66 62 60
85 85 86 86 86 85 85 85 86 86 85 84 83 82 79 78 78 78 77 76 75 74 72 69 67 66 66 66 67 69 71 72 72 71 70 71 72 70 67 63 60 59
86 88 88 87 87 86 86 86 85 86 87 87 85 83 80 77 77 78 78 78 77 74 71 68 66 66 67 67 68 70 72 73 73 71 70 70 69 66 63 61 60 61
85 87 88 88 86 85 84 85 83 83 85 88 88 86 83 80 78 78 78 77 75 73 71 68 67 68 69 69 70 72 74 74 74 71 68 67 64 61 60 60 61 62
83 85 87 87 85 83 82 82 83 82 82 86 88 88 86 82 79 77 75 73 72 70 69 68 68 70 71 72 73 74 74 74 74 71 68 64 60 58 58 59 60 61
81 83 86 86 86 84 82 82 83 82 82 83 84 84 83 79 76 75 73 71 69 68 68 68 69 71 72 73 74 75 75 76 75 72 67 61 57 56 58 60 61 61
81 82 83 84 84 84 83 83 84 83 82 81 81 80 78 77 75 73 72 71 69 69 69 69 71 74 74 73 74 76 77 76 74 70 64 58 55 56 59 61 61 60
83 83 83 82 80 79 80 81 82 82 81 80 79 78 76 74 73 72 72 72 72 72 71 71 72 74 74 73 75 77 76 74 71 68 63 57 56 59 61 60 59 57
86 86 87 85 79 76 76 77 78 79 79 79 79 79 77 76 75 74 73 74 74 74 73 72 72 73 75 76 76 73 70 67 65 63 60 58 59 62 62 60 59 58
87 87 88 86 81 77 75 75 76 77 77 78 78 79 80 81 80 78 76 76 76 75 75 74 74 75 78 78 73 68 65 62 59 59 59 60 62 64 63 63 63 63

ECMWFNIL_500_spd_009.txt.gz
Wind_Speed
54 53 53 53 53 53 53 54 56 56 56 56 55 54 53 53 53 52 51 50 50 50 49 50 50 49 49 49 49 50 50 51 52 53 53 53 54 55 55 55 54 54
55 54 54 54 54 55 55 56 57 57 58 57 56 55 55 54 54 53 52 52 51 51 51 51 50 50 50 50 50 51 52 52 53 54 54 55 55 56 56 56 56 56
54 53 54 55 55 56 57 58 59 59 59 59 57 56 55 55 55 55 55 54 54 53 52 52 52 51 51 51 52 53 53 54 54 55 55 55 55 55 56 56 57 57
56 55 54 55 56 57 58 59 60 61 61 61 59 58 57 56 56 56 57 57 56 56 55 54 54 54 54 54 55 55 55 55 55 56 56 55 55 55 55 56 56 56
58 57 56 55 56 57 58 60 61 61 62 63 63 61 60 59 58 58 58 58 58 58 57 57 57 57 57 57 56 56 56 55 55 55 56 55 55 55 55 55 55 56
57 57 56 55 56 57 58 60 61 61 61 62 63 64 64 63 62 60 59 59 59 59 59 59 59 58 58 58 57 56 56 55 55 55 56 56 56 56 55 55 56 57
56 55 54 54 55 56 57 59 61 62 62 62 63 65 66 66 66 64 62 61 61 60 60 60 60 60 60 59 59 58 57 57 56 57 57 57 58 58 58 57 58 58
55 54 53 54 54 56 57 58 59 61 63 64 65 65 66 67 67 67 66 66 65 65 64 63 62 62 62 62 61 61 60 59 59 59 59 58 58 59 59 60 61 61
56 56 56 56 56 57 58 59 60 61 62 64 66 67 67 67 68 68 68 69 69 69 69 68 66 65 65 65 64 63 62 62 62 62 61 61 61 61 61 62 62 63
60 58 58 57 57 59 61 63 64 64 64 65 66 68 69 69 69 69 70 71 71 72 72 70 69 68 67 66 65 65 64 64 64 64 64 63 63 63 64 63 63 63
64 61 60 59 59 59 62 66 68 69 69 68 68 68 69 71 71 71 71 72 72 71 71 71 70 69 67 67 66 66 65 65 65 66 67 67 66 66 65 63 62 61
72 69 67 66 65 63 62 65 69 73 74 73 72 72 71 71 73 73 74 74 74 73 71 70 69 68 67 67 67 66 66 66 66 67 69 70 69 68 67 63 60 60
81 79 76 73 71 70 67 65 68 73 77 78 78 77 76 75 75 75 76 77 78 78 76 74 72 70 69 69 68 69 69 69 69 69 71 72 72 70 68 65 61 60
84 84 83 79 75 72 70 68 68 72 77 80 81 80 80 80 79 79 79 79 80 80 81 79 77 75 73 71 71 71 72 73 73 73 74 75 75 74 71 67 63 60
84 84 83 82 78 73 71 71 71 73 76 80 83 83 82 82 82 83 82 82 82 83 84 83 82 80 78 76 75 75 75 76 76 76 77 79 79 78 74 69 64 60
81 81 79 78 77 74 72 73 74 75 76 80 83 85 85 85 84 84 84 84 85 86 87 87 85 83 81 80 79 78 78 79 79 79 79 81 82 81 77 70 65 62
78 77 75 74 73 72 72 73 74 76 78 80 83 86 89 89 89 87 86 86 86 86 87 88 87 85 82 81 79 77 77 77 78 79 80 81 83 81 77 72 68 66
78 76 75 73 72 71 71 72 74 76 79 81 83 85 88 91 92 91 90 89 88 86 85 84 85 85 84 82 81 79 78 76 76 76 76 78 79 78 75 72 70 69
83 80 78 77 76 75 75 75 75 76 78 80 83 85 86 88 91 93 93 92 91 89 86 83 81 80 80 80 81 83 82 80 77 75 74 73 73 74 72 72 71 70
88 86 84 83 82 82 82 81 80 80 80 81 83 85 86 86 88 90 91 91 90 89 88 87 84 81 78 76 76 79 81 81 78 76 74 72 70 70 70 71 71 70
95 94 92 89 88 87 88 88 87 85 85 85 85 86 87 86 86 86 87 88 87 86 86 86 86 84 82 78 75 74 76 78 77 75 72 68 66 66 67 67 67 66
101 101 99 98 96 93 92 91 90 88 87 86 86 86 86 86 86 86 87 87 87 86 85 84 84 83 82 81 80 78 76 75 73 70 66 63 61 61 61 61 61 61
101 102 102 102 101 99 96 93 91 88 86 85 84 84 84 85 85 86 87 88 88 87 87 86 84 83 81 80 80 79 77 74 71 67 63 60 59 58 58 58 58 59
98 99 100 101 101 100 98 95 92 89 87 85 83 82 82 82 83 84 86 87 88 87 88 87 86 84 82 80 79 77 75 73 71 68 64 60 58 57 57 57 58 61
94 96 98 99 100 100 100 98 96 94 92 90 88 85 83 83 82 82 83 84 86 86 87 86 85 82 81 79 77 74 72 71 69 67 63 59 57 56 56 57 60 63
91 93 95 96 99 101 101 100 99 98 97 96 94 91 89 88 87 86 83 82 83 83 83 82 80 78 77 76 73 70 70 70 67 65 62 59 57 57 57 58 60 62

ECMWFNIL_500_spd_012.txt.gz
Wind_Speed
57 58 59 58 57 57 58 59 61 61 62 62 63 64 64 65 65 65 65 64 64 63 61 60 58 58 57 56 56 56 56 56 56 56 57 57 56 55 55 55 54 54
58 59 60 61 59 58 59 60 61 62 62 62 62 63 65 66 67 67 67 67 66 64 63 62 61 60 59 58 57 57 57 57 57 57 57 57 57 57 57 57 56 56
60 58 59 61 61 60 60 60 62 64 64 64 62 62 63 65 67 68 68 68 67 66 65 63 62 61 60 59 58 58 58 58 58 58 59 59 58 58 58 58 58 58
63 59 58 60 61 61 62 62 63 64 65 66 65 64 63 63 65 66 68 69 68 68 66 65 64 63 61 60 59 59 59 59 59 60 60 60 59 59 58 58 59 59
65 62 60 61 62 62 63 65 66 66 65 66 66 67 66 65 64 64 65 67 68 69 68 67 65 64 62 61 60 60 60 60 60 60 61 60 60 59 59 59 59 59
66 64 63 63 64 64 65 66 68 68 67 66 66 66 67 66 65 64 63 64 65 68 69 68 67 65 64 63 62 61 61 61 61 62 62 62 62 61 61 61 60 58
67 66 65 64 65 67 67 68 69 70 69 67 66 65 66 66 66 65 64 62 62 65 67 69 68 67 66 65 64 64 63 63 63 63 64 64 64 64 63 62 60 58
68 68 67 67 67 69 70 70 71 72 72 70 67 65 64 65 65 66 65 63 62 61 63 66 68 68 68 67 67 66 65 65 65 65 66 67 66 66 64 63 61 59
69 70 69 69 70 71 73 74 74 75 75 73 70 66 64 62 62 63 64 64 63 61 61 62 66 69 70 70 69 68 68 67 68 68 69 69 69 68 66 65 63 61
72 73 73 73 74 75 76 76 76 75 75 73 72 70 67 63 61 61 62 63 63 63 62 62 64 67 70 71 71 71 70 70 71 72 72 73 73 71 69 68 66 64
75 76 77 76 75 75 76 77 77 76 75 73 71 70 69 67 64 61 62 63 63 64 64 65 65 67 69 71 72 72 72 73 74 74 75 76 76 74 73 71 69 67
78 79 80 80 79 77 76 76 78 80 80 78 75 73 71 69 67 65 63 64 65 67 68 69 69 70 70 71 71 72 72 74 76 77 77 78 78 78 77 75 72 70
82 82 83 84 85 85 83 80 80 83 86 85 83 82 79 75 72 70 67 66 66 69 71 72 73 73 73 72 72 72 72 74 75 77 78 79 79 80 79 77 74 70
88 87 87 85 85 86 87 85 83 84 87 89 88 87 86 83 80 77 75 72 70 70 73 76 76 76 76 76 76 76 76 76 76 76 77 77 77 77 76 75 72 70
89 90 90 90 87 84 83 84 84 83 84 87 89 89 89 88 87 85 83 82 80 76 75 77 80 80 79 79 80 80 81 81 81 81 81 79 78 77 76 75 73 71
88 89 90 91 91 88 85 85 85 84 83 84 86 89 90 91 90 89 89 89 89 86 81 79 80 83 83 83 83 83 83 84 84 84 84 84 84 83 82 81 80 78
91 92 92 93 94 93 92 92 92 91 89 86 85 86 88 91 92 92 91 91 92 91 88 83 81 83 86 87 86 86 85 85 85 85 86 87 87 88 88 87 87 85
96 96 96 96 97 98 98 98 97 96 95 93 90 87 86 87 89 90 91 91 90 90 89 87 83 83 86 88 89 89 88 88 88 88 89 89 89 89 89 88 87 86
99 99 99 100 100 101 101 101 100 99 98 97 96 93 89 86 86 86 86 87 88 88 88 88 86 85 87 89 90 91 91 91 91 91 91 91 90 89 89 88 87 86
103 102 102 102 102 103 103 103 102 102 101 100 99 98 95 92 88 86 84 84 85 86 86 86 87 87 88 89 90 91 92 92 93 93 93 92 92 90 89 88 87 85
105 105 105 105 105 105 105 104 104 103 103 103 103 102 100 98 94 91 88 86 85 85 86 86 86 87 89 90 90 91 92 92 92 92 93 93 93 92 89 86 85 84
104 105 106 106 107 107 107 107 106 105 105 105 105 104 104 103 101 97 94 91 89 87 86 86 86 87 89 90 90 91 91 91 91 91 92 93 93 92 89 85 82 81
101 102 103 104 105 107 108 108 108 107 106 106 106 106 105 105 105 103 100 98 95 92 90 88 87 87 88 89 89 90 90 90 89 90 91 93 94 93 89 84 79 77
98 98 99 100 101 103 104 106 107 107 107 107 106 106 105 105 105 106 105 103 100 98 96 93 90 89 89 90 90 90 90 90 89 90 91 92 95 95 91 85 80 77
95 95 96 97 97 98 99 101 103 104 105 105 105 105 105 105 104 104 104 105 104 103 101 98 95 92 91 92 91 91 91 91 91 92 92 93 95 97 94 90 84 79
91 92 92 93 94 95 96 97 99 100 101 102 103 103 103 104 103 103 102 102 103 104 104 103 100 96 93 93 93 92 92 93 93 93 93 94 96 96 94 91 85 80

ECMWFNIL_500_spd_015.txt.gz
Wind_Speed
62 63 63 64 64 64 63 63 63 64 65 66 68 69 69 69 68 69 69 69 69 69 69 69 68 68 68 68 69 70 70 69 68 67 66 65 63 63 61 60 60 60
62 62 62 62 64 64 64 64 64 65 66 68 70 71 72 71 70 70 71 71 72 72 72 72 71 69 68 68 69 71 72 72 71 69 68 66 64 63 62 61 62 62
62 62 62 62 64 65 65 66 66 67 68 70 72 73 74 73 72 72 72 73 74 74 75 75 74 73 70 68 69 70 71 72 72 71 70 68 66 65 64 63 63 63
64 65 65 64 65 66 67 68 68 69 70 71 73 74 75 74 73 73 74 75 75 75 76 76 76 75 73 71 70 70 70 71 72 72 72 70 69 67 66 65 65 64
67 67 67 67 67 68 70 71 71 71 72 73 74 76 76 74 73 74 75 76 77 76 76 76 76 75 75 73 72 71 71 72 72 72 72 71 70 69 68 67 66 65
71 71 71 71 71 71 72 73 74 74 73 74 75 77 77 77 76 76 76 76 76 76 76 76 75 74 74 74 73 72 73 73 73 73 73 72 71 70 69 68 67 65
74 74 75 75 75 75 75 76 77 76 75 74 75 76 77 78 80 82 81 78 76 75 76 76 76 75 74 74 73 72 73 73 74 74 73 72 71 70 69 69 68 66
76 77 78 78 78 78 78 79 79 78 75 74 74 77 79 80 83 86 86 83 79 76 75 76 76 76 75 74 73 72 72 73 73 74 74 73 72 70 69 69 68 68
79 80 81 81 81 80 80 79 80 81 79 78 79 81 82 82 84 87 88 86 84 81 79 77 76 76 76 76 74 73 72 72 72 73 73 73 73 71 70 69 69 69
80 82 83 84 83 81 79 77 77 79 80 82 84 85 83 82 84 86 88 88 86 84 83 80 78 76 76 76 76 75 74 72 71 71 72 73 73 72 71 70 70 69
77 80 83 85 86 86 84 81 79 80 81 84 85 86 86 86 86 87 88 88 87 85 83 82 81 80 79 78 77 76 75 74 73 71 71 71 72 72 71 71 71 70
78 80 82 84 86 87 87 86 85 86 87 88 88 86 86 87 87 87 87 87 85 83 80 78 77 78 79 79 79 78 76 75 74 73 72 71 71 71 71 71 71 71
86 87 89 89 90 90 90 89 89 89 90 91 92 91 88 87 87 88 88 88 88 86 84 81 78 77 77 77 77 77 77 77 75 74 73 73 72 72 72 72 72 72
93 94 95 96 97 97 96 95 95 94 94 94 95 96 94 92 91 90 90 90 91 91 91 89 86 84 82 80 78 77 77 78 78 76 74 73 73 74 74 74 74 75
97 98 99 99 100 100 100 99 98 98 98 98 99 100 100 99 97 96 95 94 94 93 93 93 91 90 88 86 83 80 78 78 78 79 78 76 75 75 76 76 76 77
101 101 100 100 100 100 100 100 100 99 99 99 100 100 101 101 100 99 99 99 99 98 97 94 93 92 91 90 87 85 82 80 79 80 81 81 78 77 77 78 79 79
103 102 101 100 100 99 99 99 99 99 98 98 99 99 99 100 100 100 99 99 100 101 100 97 94 92 91 91 91 90 88 86 83 81 82 83 83 81 80 80 81 82
101 101 100 99 99 99 99 99 99 99 98 98 99 99 99 100 100 101 100 99 99 100 101 100 97 94 92 92 92 92 92 91 89 86 84 84 84 85 84 83 83 83
102 102 101 101 101 101 102 102 102 102 102 102 102 101 101 101 101 102 102 102 101 100 101 101 100 97 96 95 94 93 94 94 93 91 88 86 86 86 87 86 86 85
105 105 105 105 105 105 106 106 106 106 106 106 107 107 106 105 105 104 104 104 104 103 103 102 102 101 100 99 99 97 96 96 96 95 93 91 88 88 88 88 89 89
106 107 107 108 108 108 109 109 109 110 110 110 111 111 111 111 110 109 108 108 107 107 107 105 104 103 104 103 103 102 101 100 99 99 98 96 93 90 89 89 90 92
105 106 107 108 108 109 109 109 110 110 111 111 112 113 114 114 115 115 114 113 111 110 110 109 107 107 107 107 107 106 105 104 103 102 101 100 97 94 92 91 91 92
102 103 104 105 105 105 106 106 107 107 108 108 110 111 113 114 115 116 117 117 116 115 113 112 111 109 109 109 110 110 109 108 106 105 104 103 101 97 94 92 92 92
96 97 98 99 100 100 100 101 102 103 104 104 105 107 108 110 112 113 114 116 116 117 116 115 113 111 110 109 110 112 113 112 110 108 106 105 104 102 99 95 93 93
92 93 94 95 96 96 96 97 97 98 99 100 101 102 102 104 105 107 109 111 112 113 114 114 114 112 110 109 109 110 111 114 115 113 109 106 105 104 104 101 96 94
89 90 91 91 92 92 93 93 93 94 94 94 96 97 97 98 98 100 101 103 104 106 108 109 111 111 109 107 107 108 108 110 114 115 113 110 107 105 105 105 102 99

ECMWFNIL_500_spd_021.txt.gz
Wind_Speed
69 69 69 68 68 67 67 67 66 66 67 67 68 69 70 70 70 71 71 73 73 75 75 75 76 76 76 75 75 76 76 76 76 77 77 77 77 77 78 78 79 79
70 69 69 69 69 69 69 69 69 69 69 70 70 71 72 72 72 72 73 74 75 75 76 76 76 76 77 76 76 77 78 79 79 79 79 80 80 80 80 80 81 81
70 68 67 66 67 68 69 69 70 71 72 73 74 74 75 74 74 74 74 75 75 75 76 76 77 77 77 77 77 77 78 79 80 81 81 82 83 82 82 82 82 83
70 69 69 68 68 68 69 70 72 73 74 76 77 78 78 79 79 78 78 77 76 76 76 76 76 77 77 78 78 79 80 81 81 81 82 82 83 84 84 84 84 84
72 73 73 73 73 74 74 74 75 76 77 78 79 79 80 80 81 81 81 81 80 79 78 78 78 78 78 78 79 80 81 82 83 83 83 83 84 84 84 85 85 84
76 77 76 76 75 75 75 75 76 78 80 80 80 80 81 81 81 81 82 83 83 83 82 81 81 81 82 82 82 82 83 83 84 85 84 84 85 85 85 85 85 85
78 78 79 79 78 78 78 78 78 79 81 82 83 83 82 82 82 82 83 84 85 86 86 85 84 84 84 85 85 86 86 86 86 87 87 87 86 86 86 85 85 85
80 81 81 82 82 82 81 81 80 80 80 82 83 84 83 82 82 83 83 84 84 86 88 89 88 87 87 87 87 88 87 87 87 87 88 89 89 89 88 88 86 85
82 82 83 83 84 84 82 81 80 79 79 80 80 81 81 81 81 81 82 82 83 84 86 88 90 91 91 91 91 91 91 89 87 87 87 89 90 90 91 91 90 88
83 84 84 85 86 87 87 86 85 84 84 84 84 84 84 84 83 83 83 83 83 83 84 86 88 90 92 94 96 97 97 96 93 90 89 89 89 91 92 92 92 90
88 88 89 90 90 91 91 92 91 91 92 92 92 93 93 93 93 92 90 89 87 87 86 86 86 88 90 93 95 98 100 101 101 99 95 92 90 91 92 92 91 90
94 94 95 95 96 96 96 97 97 97 97 97 98 99 99 99 99 98 97 96 94 93 92 91 90 90 91 92 94 96 99 102 104 105 104 100 96 92 91 91 89 88
99 99 100 100 100 100 101 101 101 101 101 101 101 101 102 102 102 101 101 100 99 98 97 97 96 96 96 97 98 98 99 101 103 105 107 107 104 100 95 92 90 88
102 102 103 103 103 103 103 103 103 103 104 104 104 104 104 103 103 103 102 102 101 100 100 100 100 100 100 101 103 103 103 103 103 104 106 108 109 107 103 98 95 92
100 100 100 100 100 100 100 101 101 101 102 102 103 103 104 104 104 104 103 103 102 102 101 101 101 101 101 102 104 106 107 108 107 107 107 107 109 110 108 104 100 97
92 92 91 91 92 92 92 93 93 94 95 96 97 98 100 101 102 102 103 103 104 103 103 102 102 101 101 101 103 104 106 108 110 110 110 110 109 110 110 108 105 102
83 83 83 83 83 84 84 85 86 87 88 89 91 92 94 95 97 99 100 102 103 104 104 104 104 103 102 102 103 104 105 107 109 111 112 112 112 112 111 111 109 106
78 78 77 77 78 78 79 80 81 82 83 84 86 87 89 90 92 94 96 98 99 101 102 103 104 104 104 104 105 105 106 107 109 111 112 113 112 112 113 113 113 111
75 75 74 74 75 75 76 77 78 79 80 81 83 84 85 87 88 90 91 93 94 96 98 99 100 101 103 105 106 108 108 109 111 112 113 114 114 114 113 113 114 114
71 71 72 72 73 74 74 75 76 77 78 79 81 82 83 84 84 85 86 87 88 90 92 93 94 95 97 100 103 105 107 110 112 113 114 115 115 116 116 115 115 115
68 69 69 70 71 72 73 74 75 76 77 79 80 80 81 81 82 82 82 83 84 85 87 88 88 89 91 93 96 99 101 105 108 111 114 115 116 116 117 117 117 117
67 68 69 70 71 72 73 74 75 76 78 79 80 80 80 81 81 82 82 82 82 83 85 85 84 84 86 88 90 92 95 98 101 104 108 111 114 115 116 118 119 119
68 69 70 71 72 73 74 75 76 77 79 80 81 80 80 81 82 82 82 82 83 83 84 84 82 82 84 87 88 89 91 93 95 97 100 102 106 109 112 115 117 118
70 70 71 72 73 73 74 75 76 77 78 79 80 80 80 81 82 82 81 81 82 82 82 83 82 81 83 85 87 88 90 92 93 94 95 95 97 99 102 106 110 112
70 70 71 72 72 73 74 75 76 77 78 78 79 79 79 79 79 79 77 77 77 77 77 78 78 77 79 82 83 84 87 89 91 92 92 92 93 94 94 96 99 101
69 70 70 71 72 72 73 75 76 77 76 76 75 75 75 74 74 74 72 69 68 68 68 68 69 69 69 72 74 75 78 81 83 86 87 89 90 92 92 91 92 92

ECMWFNIL_500_spd_024.txt.gz
Wind_Speed
69 70 72 74 76 78 80 81 81 81 79 78 77 77 77 76 75 74 74 73 73 73 74 74 75 76 77 78 79 79 80 80 81 81 81 81 82 82 82 81 81 81
70 72 73 74 76 78 79 81 82 83 83 82 81 80 79 78 76 74 73 73 73 73 73 74 75 76 78 79 80 81 81 82 82 83 83 83 83 83 83 83 83 83
71 71 72 73 75 77 78 79 80 81 81 82 82 82 82 82 79 77 75 74 73 73 73 74 75 76 77 79 80 82 82 83 83 84 84 84 85 85 85 85 84 85
73 72 72 72 73 75 77 78 79 79 79 80 81 82 83 83 82 81 80 79 78 78 77 76 76 76 77 79 80 82 84 85 85 85 85 85 85 85 85 85 85 85
76 75 74 73 73 74 76 77 78 79 80 80 80 81 82 83 83 83 84 84 84 84 84 83 82 81 81 80 81 82 84 86 87 88 88 88 88 88 87 87 86 85
78 77 76 76 76 77 78 79 80 80 81 82 83 83 84 84 84 85 85 86 86 87 88 88 88 87 86 85 84 85 85 86 87 88 89 90 90 90 90 89 88 86
79 79 78 79 80 82 83 84 84 85 85 86 86 86 86 86 86 86 86 86 86 87 88 89 89 90 90 89 89 90 90 90 89 89 89 89 90 90 90 90 89 86
83 83 83 84 85 86 86 87 87 88 88 88 88 88 88 88 88 87 87 86 87 87 88 89 90 91 92 93 94 94 95 95 95 94 92 91 90 90 90 91 91 90
88 88 88 88 87 88 88 88 88 89 89 90 90 90 90 90 90 90 90 89 89 89 89 89 90 91 92 93 94 95 96 97 98 98 97 95 93 92 91 91 91 92
89 90 90 90 90 90 90 90 90 91 91 91 92 92 92 93 93 93 93 93 92 92 92 93 93 93 92 93 93 94 95 96 98 100 99 98 96 95 93 92 92 91
91 92 92 93 93 93 93 93 93 93 94 94 94 95 95 96 97 97 97 97 97 97 97 97 97 97 97 96 96 97 97 97 98 100 101 101 100 98 96 95 95 94
93 94 95 95 96 96 97 97 97 97 97 97 98 98 99 100 100 101 101 101 101 102 102 102 102 101 101 101 101 101 101 101 101 101 102 103 103 103 101 100 99 98
95 95 96 97 97 98 99 99 100 100 100 100 100 101 101 101 102 102 102 102 102 102 102 103 103 103 104 105 106 106 106 106 106 105 105 105 106 106 106 106 105 104
96 96 97 97 98 98 98 98 99 99 99 98 98 98 99 99 99 99 99 99 99 99 100 100 100 101 101 103 104 106 108 109 109 109 109 109 109 109 110 110 110 109
96 96 95 95 95 94 94 93 93 92 92 91 91 91 91 92 92 93 93 94 94 94 95 95 96 96 96 97 99 101 103 105 107 109 110 111 111 111 111 112 112 113
93 92 91 90 89 88 87 86 85 84 83 83 82 82 82 83 83 84 85 86 86 87 88 88 89 90 90 91 93 95 97 99 101 103 105 108 109 111 111 112 112 113
84 83 81 80 79 78 77 76 76 75 74 74 73 73 74 75 75 76 76 77 79 80 81 82 83 83 85 86 88 90 92 94 96 98 99 101 103 106 108 109 110 111
74 73 72 71 70 69 68 68 68 67 68 68 68 68 69 70 70 71 72 73 75 76 76 77 77 78 80 82 83 85 87 90 92 94 95 96 98 100 102 104 106 107
68 67 66 65 65 64 64 64 64 65 66 66 67 68 68 69 70 71 72 73 75 75 76 75 76 77 79 80 81 82 84 86 88 89 90 92 93 94 96 97 99 102
65 64 63 63 63 63 64 65 66 67 68 69 69 70 71 71 72 73 74 75 76 77 76 75 76 77 78 79 79 81 82 83 84 84 85 86 87 88 90 92 94 96
62 62 62 62 63 65 66 67 69 70 70 71 72 72 72 73 73 73 74 74 75 75 75 74 74 76 77 77 78 79 80 81 81 81 81 82 82 83 85 87 88 89
61 62 63 65 66 67 68 69 70 71 71 72 72 71 72 72 72 72 73 73 73 74 75 74 74 76 77 77 78 78 79 79 80 80 79 79 78 78 80 81 82 83
63 64 66 67 68 69 70 70 70 70 70 70 70 70 70 70 71 71 73 74 74 74 75 74 73 74 75 75 74 75 76 77 77 76 75 74 73 73 74 75 77 78
65 67 68 69 69 69 69 69 68 68 68 69 69 68 69 70 71 72 73 73 73 72 72 71 70 69 70 70 69 70 70 70 69 67 66 65 64 64 66 67 69 71
67 68 69 69 69 69 68 68 67 67 67 68 68 69 69 70 72 72 71 70 69 68 68 67 65 63 63 64 63 63 63 62 60 57 56 55 55 55 56 58 60 62
68 69 69 69 69 68 67 67 67 67 67 68 68 69 69 70 70 69 67 66 65 64 62 61 60 58 59 60 59 57 56 54 52 50 50 50 51 52 53 55 57 59

ECMWFNIL_500_spd_027.txt.gz
Wind_Speed
68 68 67 67 67 68 69 70 72 72 74 75 76 77 77 77 77 78 79 79 80 80 80 80 79 79 79 79 79 80 80 80 80 81 81 81 81 81 81 82 83 83
70 71 71 71 72 72 70 70 72 74 75 77 78 78 79 79 80 80 81 82 83 83 83 83 82 81 80 80 79 79 79 80 80 81 81 82 82 82 82 82 83 84
71 72 73 74 75 75 74 72 72 74 75 77 79 80 81 82 82 83 83 84 84 85 85 85 85 85 84 83 82 81 80 80 80 81 81 82 82 82 82 82 82 84
71 72 73 75 76 77 77 75 74 75 76 78 79 81 82 83 84 84 85 85 85 85 85 86 86 87 87 86 86 86 85 84 83 83 83 83 83 83 83 83 83 84
71 73 74 76 77 78 78 78 78 78 79 80 81 82 83 84 85 85 86 86 86 86 86 87 87 88 88 88 89 89 89 89 89 88 87 87 87 87 87 87 86 86
74 75 76 77 78 79 79 80 81 82 82 83 84 85 85 86 86 87 87 88 88 88 89 89 90 90 91 91 91 92 92 92 93 93 92 92 91 91 91 91 90 90
75 76 78 79 80 82 83 84 84 85 86 86 87 88 89 89 89 89 89 89 89 90 91 91 92 93 93 94 94 94 95 95 96 96 96 96 95 94 94 94 93 92
78 80 82 83 85 86 87 87 88 88 88 89 89 90 90 90 90 90 90 91 91 91 92 93 94 95 95 96 96 96 96 97 97 98 98 98 98 98 98 97 97 96
83 84 85 86 87 88 88 88 89 89 89 89 90 90 90 91 91 91 92 92 92 93 93 94 95 96 97 97 98 98 98 99 99 100 100 100 100 100 100 101 100 100
85 85 85 86 87 88 88 89 89 90 90 91 91 91 92 92 93 93 93 94 94 95 96 96 97 97 98 98 99 99 100 100 100 101 101 101 101 102 102 103 103 103
86 86 87 88 89 90 91 91 92 93 93 94 94 94 94 94 95 95 95 96 96 97 97 98 98 99 99 99 100 100 101 101 101 102 102 102 102 102 103 103 104 104
88 89 90 91 92 93 94 94 95 95 96 96 96 96 96 96 96 96 96 96 97 97 97 98 98 99 99 100 100 101 101 101 102 103 103 103 103 103 103 104 105 105
90 91 92 93 93 94 94 95 95 95 96 96 96 96 96 96 96 96 96 96 96 96 96 97 97 98 98 99 100 100 101 101 101 102 102 103 103 104 104 105 105 106
91 91 92 93 93 93 94 94 94 94 94 94 94 94 94 93 93 93 92 92 91 91 91 91 92 93 94 95 96 96 97 98 98 99 100 100 101 101 102 103 104 105
91 91 91 92 92 92 92 92 92 91 90 89 89 88 87 87 86 86 85 84 83 82 82 82 83 84 85 87 88 89 90 91 92 93 94 95 95 96 96 96 98 100
90 90 90 90 90 89 89 88 86 84 83 81 80 79 78 77 77 76 75 75 74 73 73 74 75 76 77 79 81 82 83 84 85 85 86 87 88 89 89 90 90 92
87 87 87 86 85 84 82 80 78 76 74 72 71 70 69 68 68 67 67 68 68 68 69 70 71 73 74 75 76 78 79 80 81 81 81 81 82 83 84 85 85 86
83 82 80 79 78 76 73 71 69 68 67 66 65 64 63 63 63 64 65 66 67 68 69 70 71 72 74 74 75 76 77 79 79 78 78 78 78 79 80 81 82 82
77 75 73 72 70 68 66 65 64 64 63 62 62 62 62 62 63 65 67 68 69 70 70 71 71 72 73 73 74 74 75 76 76 75 75 75 75 75 76 77 77 78
70 69 67 65 64 63 62 62 62 62 61 61 61 62 63 64 66 67 69 70 70 70 70 70 70 70 71 71 72 72 73 73 73 73 73 73 73 73 73 74 75 76
65 64 62 61 61 60 60 60 61 61 61 62 63 64 65 67 68 69 70 70 71 71 70 69 69 69 70 70 71 71 72 72 73 73 73 72 72 72 72 73 74 74
61 60 60 59 59 59 59 60 60 61 62 63 64 66 67 68 69 70 71 71 71 70 69 68 68 69 70 70 71 71 72 73 73 73 72 71 70 70 71 72 72 72
59 59 59 59 59 60 60 61 62 63 64 66 66 67 68 70 71 71 71 70 70 69 68 67 66 68 70 70 70 71 72 72 71 70 69 67 67 67 68 69 68 68
59 59 59 60 61 61 62 63 64 65 66 67 68 69 70 71 71 71 70 69 68 68 67 67 66 67 69 69 69 69 70 69 68 66 64 62 63 63 64 64 63 62
60 60 61 61 62 63 64 65 66 67 68 69 70 70 71 71 71 70 68 68 67 67 67 67 66 66 67 66 66 66 66 65 63 60 58 57 59 60 60 60 59 57
60 61 62 63 63 64 65 66 67 68 69 70 71 71 71 70 69 68 67 67 67 67 67 67 66 65 64 63 63 62 62 60 57 54 53 54 55 56 56 57 56 53

ECMWFNIL_500_spd_030.txt.gz
Wind_Speed
65 66 66 67 68 68 69 70 71 72 73 74 75 76 77 78 78 79 80 81 81 81 82 81 80 80 80 80 80 80 80 80 80 81 81 80 79 79 79 80 81 82
67 67 68 69 70 71 71 72 72 73 74 76 77 78 78 79 80 81 82 83 84 84 85 84 83 83 82 82 82 82 82 82 83 83 83 83 83 82 81 81 80 81
68 69 70 71 72 73 74 74 75 76 77 78 79 80 80 81 81 82 82 83 83 84 84 84 84 84 84 84 84 85 86 86 86 86 86 86 86 86 86 86 85 84
69 70 72 73 74 74 75 75 76 77 77 78 79 80 80 81 81 81 81 82 82 83 83 84 85 85 86 87 88 88 89 90 90 90 89 90 90 90 90 90 89 89
71 71 71 71 72 72 72 73 74 75 76 76 77 78 78 79 80 81 83 83 84 84 85 86 87 88 89 90 91 91 92 92 92 93 93 93 93 94 93 93 93 92
71 71 71 71 71 72 72 73 74 74 75 76 77 78 80 81 82 84 85 86 87 87 88 89 90 90 91 92 92 93 93 93 93 94 94 94 95 95 96 96 95 95
71 71 71 72 73 74 74 75 75 76 77 79 80 81 82 83 84 85 86 87 88 89 90 90 91 91 92 93 93 94 94 94 95 95 95 95 95 96 96 97 97 97
71 71 72 73 74 75 76 77 78 79 80 80 81 82 82 83 85 86 87 88 89 90 91 92 92 93 93 94 94 95 95 96 96 97 97 97 97 97 97 98 98 98
73 74 75 75 76 77 78 78 79 80 80 81 82 83 84 85 86 87 88 89 90 91 92 93 93 94 94 95 95 96 96 97 97 98 98 98 98 99 99 99 99 99
75 75 76 77 77 78 79 79 80 81 82 83 84 85 86 87 88 89 90 91 92 93 93 94 94 95 95 95 96 96 96 97 97 98 98 99 99 99 100 100 100 99
76 77 78 78 79 80 81 81 82 83 84 85 86 87 88 89 90 91 92 93 93 94 94 94 95 95 95 95 95 96 96 96 97 97 97 98 98 99 99 100 100 100
78 78 79 80 81 81 82 83 84 85 86 87 88 89 90 91 92 92 93 93 93 94 94 94 94 94 94 94 94 94 95 95 95 95 95 96 96 96 97 97 98 99
79 79 80 81 82 83 84 85 86 87 88 89 89 90 91 91 91 92 92 92 92 92 92 92 92 92 92 91 91 91 91 91 91 91 92 92 92 93 93 94 94 95
79 80 81 82 83 84 86 87 88 89 89 90 90 90 90 90 90 90 90 90 90 89 89 88 88 87 87 86 86 86 85 85 85 86 86 87 87 87 88 89 90 91
80 81 82 83 84 86 87 88 89 89 89 89 89 89 88 88 88 87 86 85 84 83 83 82 81 80 79 79 79 78 78 78 79 79 80 81 82 82 82 83 85 86
81 83 83 85 86 87 88 88 88 88 88 88 87 87 86 85 83 82 80 79 78 76 75 74 73 72 72 72 72 73 73 73 74 74 75 76 77 78 79 79 80 81
83 84 85 86 87 87 87 87 87 86 85 85 83 82 80 79 77 75 73 72 71 69 69 68 67 67 68 68 69 70 71 72 72 73 74 74 75 76 76 76 76 77
84 85 86 86 86 86 85 84 83 82 80 79 77 75 73 71 69 68 67 66 66 65 65 65 65 65 66 67 68 70 72 73 73 73 73 73 73 73 73 73 73 73
84 85 84 84 83 81 80 78 76 75 73 70 69 67 66 64 63 63 63 63 63 63 63 63 64 66 67 69 70 71 73 73 73 73 73 72 72 72 71 71 70 70
83 82 81 80 78 75 73 71 69 67 66 64 63 62 61 61 61 61 61 62 62 63 63 64 66 67 69 70 71 72 73 74 73 73 72 72 71 70 70 69 68 68
80 78 76 74 72 69 67 65 64 62 61 61 60 60 60 60 60 61 62 62 63 64 65 66 67 69 70 71 72 73 73 74 73 72 71 70 69 69 69 68 68 67
76 74 72 69 66 64 62 61 60 60 60 60 59 60 60 61 61 62 63 64 65 66 67 67 69 70 72 72 73 73 73 73 72 71 70 69 69 69 69 68 68 67
72 69 66 64 61 60 59 59 59 59 60 60 61 61 62 63 63 64 65 66 67 68 68 69 70 71 73 73 73 73 73 72 72 71 70 70 69 69 69 68 67 67
66 63 61 60 59 58 59 59 60 61 62 62 63 63 64 65 65 66 67 67 68 69 70 70 70 72 72 72 72 72 73 72 72 71 70 70 70 69 68 67 65 64
61 59 58 58 58 59 60 61 62 63 63 64 65 65 65 66 67 67 67 68 69 70 71 71 70 71 71 71 71 72 73 73 73 72 71 70 69 67 65 64 62 60
58 57 58 59 59 60 61 62 63 64 65 65 66 66 67 67 68 68 68 69 70 70 70 70 70 69 70 70 71 72 73 73 72 71 70 68 67 65 63 61 58 56

ECMWFNIL_500_spd_033.txt.gz
Wind_Speed
68 69 69 69 69 69 70 72 74 76 78 77 73 72 72 73 74 76 77 78 78 79 80 80 80 81 81 81 82 83 83 84 84 84 85 84 84 84 83 83 83 82
69 69 69 69 70 71 72 74 76 76 76 75 72 72 72 73 74 76 77 78 79 79 80 81 81 81 81 82 83 83 84 85 85 86 86 86 86 86 85 85 85 85
69 70 70 71 71 72 74 74 74 72 71 72 72 73 74 75 75 76 77 78 78 78 78 79 79 79 80 80 81 82 82 83 83 84 84 84 85 86 86 87 87 88
71 71 72 72 72 72 73 73 72 72 73 74 75 75 76 76 76 76 76 76 76 77 77 77 77 78 78 78 79 80 80 81 82 83 84 85 86 87 87 88 89 90
72 73 72 72 71 71 71 71 71 72 72 73 73 73 74 74 74 74 75 75 76 76 77 78 78 78 79 79 80 80 81 82 82 83 84 86 87 88 88 89 90 91
71 71 69 68 67 67 67 68 69 69 70 71 71 72 72 73 73 74 74 75 76 77 78 78 79 79 80 80 81 82 82 83 84 84 85 86 87 88 89 90 91 92
68 67 65 65 66 66 67 68 69 69 70 71 72 72 72 73 73 73 74 75 76 76 77 78 79 80 81 82 83 83 84 85 85 86 87 88 88 89 90 91 92 92
66 66 67 68 69 69 70 70 70 70 71 71 71 72 72 73 73 74 75 75 76 77 78 79 80 81 82 83 84 85 85 86 87 87 88 88 89 90 90 91 91 92
67 69 70 70 71 71 71 71 71 71 71 71 72 72 73 74 74 75 75 76 77 78 79 80 81 82 83 84 85 85 86 87 87 88 88 89 90 90 91 92 92 92
69 70 71 71 72 72 72 72 72 72 73 73 73 74 74 75 75 76 76 77 78 79 80 81 82 83 84 85 86 86 87 87 88 89 89 90 91 92 92 93 93 94
70 71 72 72 72 73 73 73 74 74 74 75 75 75 76 76 77 78 78 79 80 81 82 83 84 85 86 87 87 88 88 88 89 89 90 90 91 92 92 93 93 93
70 71 72 73 74 74 74 75 75 75 76 76 76 77 78 78 79 80 81 81 82 83 84 85 86 87 87 88 88 88 88 89 89 89 89 89 89 89 89 89 90 90
71 72 73 74 75 75 75 75 76 76 76 77 78 79 79 80 81 82 82 83 84 85 86 87 87 88 88 88 88 88 88 87 87 87 86 85 85 84 84 84 84 84
72 73 74 74 75 75 75 76 76 77 77 78 79 80 81 82 83 83 84 85 85 86 87 87 87 88 87 87 87 86 85 84 83 82 81 80 79 78 78 78 78 78
72 73 74 74 75 75 76 76 77 78 78 79 80 82 83 83 84 85 85 86 86 86 86 86 86 85 85 84 83 82 81 79 78 77 76 75 74 73 73 73 73 73
72 73 74 75 76 76 77 78 78 79 80 81 82 82 84 84 85 85 85 85 85 85 84 83 82 81 80 79 78 77 76 74 73 72 71 70 70 70 70 70 71 71
72 73 75 76 77 78 79 79 80 80 81 82 83 83 84 85 84 84 84 83 82 81 79 77 76 75 74 73 72 71 71 70 69 68 68 68 69 69 69 69 70 71
74 75 76 77 78 79 80 80 81 81 82 83 83 83 83 83 82 81 80 78 76 75 73 71 70 70 69 68 68 67 68 67 67 67 67 68 68 69 69 70 70 70
75 76 77 78 79 80 81 81 81 82 82 82 82 81 80 78 77 75 73 72 70 69 67 66 66 66 66 65 65 66 66 66 67 67 68 68 69 69 70 71 71 71
76 77 78 79 80 81 81 81 81 81 80 79 78 76 74 73 71 69 67 66 65 64 64 63 64 64 65 65 65 66 66 67 67 68 68 69 70 71 72 72 73 73
78 78 79 80 80 81 80 80 79 78 76 74 73 71 69 67 65 63 62 62 62 62 62 62 63 64 65 65 66 67 68 68 69 70 70 71 72 73 74 74 74 74
79 79 80 80 80 79 78 77 75 74 72 70 67 65 64 62 61 60 60 61 61 62 62 63 64 66 66 67 68 69 70 70 71 71 72 73 74 74 75 75 75 75
79 79 79 78 77 76 74 72 70 69 67 64 63 61 60 60 60 60 61 62 62 63 64 64 65 67 68 69 70 71 72 72 73 73 73 74 74 74 75 74 74 75
78 77 76 75 73 71 69 67 65 63 62 60 60 59 59 60 61 61 62 63 64 65 65 66 67 68 69 70 71 72 73 73 73 73 73 73 73 73 73 72 72 72
76 74 72 69 67 65 63 61 60 59 59 59 59 59 60 61 62 62 63 65 66 66 67 67 68 69 70 70 71 72 72 73 72 72 72 71 71 70 70 69 69 68
70 68 65 63 61 59 58 58 57 58 58 59 59 60 61 62 63 64 64 65 66 67 67 68 68 68 69 69 70 71 71 71 71 70 70 69 68 67 66 65 65 64

ECMWFNIL_500_spd_036.txt.gz
Wind_Speed
67 68 69 69 70 70 71 72 72 73 73 73 73 74 74 74 74 74 74 75 76 77 78 78 79 79 78 77 77 77 77 76 75 76 77 78 80 81 81 82 82 82
69 70 70 71 71 72 72 72 73 73 73 73 73 73 73 72 72 72 73 74 74 75 75 75 76 76 76 77 77 77 76 75 75 74 74 75 76 78 79 80 81 81
71 71 72 72 72 73 73 73 73 74 74 74 73 72 71 71 71 70 70 70 70 71 71 72 72 73 74 75 75 76 76 75 75 75 74 74 74 74 75 77 78 79
72 73 73 73 73 73 73 73 73 73 73 72 72 71 70 68 67 66 67 67 68 69 70 71 72 73 73 74 75 75 76 76 76 75 75 75 75 75 75 75 76 77
73 73 73 73 73 73 73 73 72 72 72 71 70 68 67 66 66 66 67 68 68 69 70 71 71 72 73 73 74 74 75 75 76 76 77 77 77 77 77 77 77 77
73 73 73 73 73 73 72 72 72 71 70 68 67 66 66 66 68 68 68 68 69 69 69 70 71 71 72 73 74 74 75 75 76 77 77 78 78 79 79 79 79 80
74 73 73 73 73 73 73 72 72 70 68 66 65 66 68 70 70 70 70 70 70 70 71 71 72 72 73 74 74 75 75 76 77 77 78 79 79 80 81 81 81 82
73 73 74 74 74 73 72 71 70 68 67 66 66 68 70 72 72 72 72 72 72 72 73 73 74 74 75 75 75 76 76 77 77 78 79 80 80 81 82 82 83 83
73 73 74 74 73 72 70 69 69 67 67 68 69 70 72 73 73 73 73 73 74 74 74 75 75 75 76 76 76 77 77 78 79 79 80 80 81 82 82 83 84 84
72 72 73 72 71 70 69 69 69 68 69 70 71 72 73 73 74 74 74 75 75 75 75 76 76 76 77 77 77 78 78 79 80 80 81 82 82 83 84 85 85 86
71 71 72 71 70 70 69 69 69 70 70 71 72 73 73 74 75 75 75 76 76 76 76 77 77 78 78 78 79 79 79 80 81 81 82 83 84 84 85 85 85 85
71 71 71 71 70 70 70 70 70 70 71 72 73 73 74 75 75 76 76 77 77 77 78 78 79 79 79 79 80 80 80 81 82 82 83 84 84 84 84 84 84 84
70 70 70 70 70 70 71 71 71 71 72 73 74 74 75 76 76 77 77 78 78 79 79 80 80 81 81 81 81 82 82 82 83 83 83 83 83 83 83 82 82 81
70 70 70 70 70 71 71 72 72 73 74 74 75 75 76 76 77 78 79 79 80 80 81 81 82 82 83 83 83 83 83 83 83 82 82 81 80 80 79 78 78 77
70 70 70 70 71 72 72 73 73 74 74 75 75 76 77 77 78 79 80 80 81 81 82 83 83 84 84 83 83 83 83 82 81 80 79 78 77 76 74 74 73 72
71 70 71 71 72 72 73 73 74 75 76 76 77 78 78 79 79 80 81 81 82 82 82 83 83 83 83 82 82 81 81 80 78 76 75 74 73 71 71 70 69 69
71 71 71 71 72 73 74 75 76 77 77 78 78 79 79 79 80 80 81 81 81 81 81 81 81 81 80 79 78 77 76 74 72 71 70 69 68 68 68 67 67 68
70 71 71 72 73 74 75 76 77 78 78 79 79 79 79 79 80 80 80 80 80 79 78 78 77 76 75 73 72 71 70 68 67 66 66 66 66 66 66 67 67 68
71 72 72 73 74 75 76 77 78 78 79 79 78 78 78 78 78 78 77 76 75 74 73 72 71 70 68 67 66 65 65 64 64 64 64 64 65 66 66 67 68 69
72 73 74 74 75 76 77 77 77 78 78 78 77 77 76 75 75 74 72 71 69 68 67 66 65 64 62 62 62 62 62 62 63 63 64 65 66 67 68 69 70 71
74 74 75 75 76 76 76 76 77 77 76 76 75 73 72 71 70 68 66 65 63 62 61 60 60 60 60 60 61 62 63 63 64 65 66 67 68 69 70 71 71 72
75 75 76 76 76 76 75 75 75 74 73 72 70 69 67 66 64 62 61 59 59 58 58 58 59 60 60 61 63 64 64 65 66 67 67 68 69 69 69 69 70 70
76 76 76 76 75 75 74 73 71 70 69 67 66 64 62 61 59 58 57 57 57 58 58 59 60 61 62 63 64 65 66 66 67 67 67 67 67 68 68 68 68 69
76 76 75 74 73 72 70 69 67 66 64 63 61 60 58 58 57 56 57 57 58 59 60 60 61 62 63 64 65 65 66 66 66 66 66 66 66 66 66 66 67 67
75 74 73 71 70 68 67 65 64 62 61 59 58 57 57 56 56 57 57 58 59 59 60 60 61 61 62 63 63 64 64 65 65 65 64 65 65 65 65 65 65 65
72 70 69 67 66 65 63 62 60 59 58 57 57 56 56 56 56 57 57 57 58 58 58 59 59 59 60 61 62 63 63 64 64 64 64 64 64 64 63 63 63 63

ECMWFNIL_500_spd_042.txt.gz
Wind_Speed
57 57 56 56 57 58 58 59 60 62 63 64 65 65 66 68 69 71 72 73 74 74 75 76 76 77 77 77 76 76 76 76 75 75 74 74 74 73 73 73 73 73
56 57 57 58 59 59 60 61 62 63 64 65 66 67 68 70 71 73 74 75 75 76 76 77 77 77 77 76 76 75 75 74 74 73 73 72 72 72 72 72 72 72
57 58 59 60 60 61 62 62 63 64 66 67 68 69 70 72 73 75 75 76 77 77 78 78 77 77 76 75 74 74 73 73 72 72 71 71 71 71 71 71 72 73
59 60 61 61 61 62 63 64 65 66 68 69 70 71 73 74 75 76 77 77 78 78 78 78 77 76 75 74 73 72 72 71 71 71 71 70 70 71 71 72 73 74
61 61 61 62 62 63 64 65 67 68 69 70 72 73 75 76 77 78 78 78 78 78 78 77 75 74 73 72 71 71 70 70 70 70 71 71 71 72 72 73 74 75
62 62 62 62 63 64 66 68 69 70 71 72 74 76 77 78 79 79 79 78 78 78 76 75 73 72 71 70 70 70 70 70 70 71 71 72 72 73 74 75 76 77
63 63 63 64 65 67 69 70 71 72 73 75 76 78 79 79 80 80 79 78 78 76 74 72 71 70 70 70 70 70 70 70 71 71 72 73 74 75 75 76 77 78
65 65 65 66 67 69 71 72 74 75 77 78 79 80 80 81 81 80 79 78 77 75 73 72 71 70 70 70 70 70 71 71 72 73 73 74 75 77 78 79 80 81
67 67 68 69 70 72 74 75 77 78 79 80 80 81 82 82 82 80 79 78 76 74 72 71 70 70 70 70 70 71 71 72 73 74 75 77 78 80 81 82 83 84
68 69 70 71 73 75 77 79 80 81 81 81 82 82 83 82 81 80 78 77 74 73 72 71 70 70 70 71 71 72 73 74 75 77 79 80 82 83 84 85 85 85
70 71 72 74 76 78 80 82 82 82 82 83 83 83 83 82 80 79 77 75 73 72 71 71 71 71 72 72 73 74 75 77 78 80 82 83 84 84 83 83 82 81
71 73 74 77 79 81 82 83 83 83 83 83 83 83 82 81 80 78 76 74 73 72 72 72 72 73 73 74 75 76 78 80 81 83 83 83 82 80 79 79 79 79
73 75 77 79 81 82 83 84 84 84 83 83 82 81 80 80 78 76 75 73 73 72 72 73 73 74 75 76 77 79 80 82 82 81 79 78 77 77 77 77 77 77
74 77 79 81 82 83 84 84 84 83 83 82 81 80 79 78 77 75 74 73 73 73 74 74 75 76 77 78 80 81 81 80 77 75 74 74 75 75 76 75 74 73
76 79 81 82 83 83 84 83 83 82 82 81 80 79 78 77 75 74 74 73 74 74 75 76 77 78 79 80 80 79 77 74 72 71 72 73 73 73 72 71 70 69
78 80 82 83 83 83 83 82 81 81 80 79 78 77 76 75 74 74 74 74 75 76 77 77 78 79 79 78 76 73 71 70 70 70 71 71 70 70 68 67 65 64
80 82 82 82 82 82 82 81 80 79 78 77 76 75 74 74 74 74 74 75 76 77 77 78 79 78 76 73 71 69 68 69 69 69 69 68 67 66 64 63 62 61
81 81 82 81 81 81 80 79 78 77 76 75 74 73 73 74 74 75 76 77 77 77 78 78 76 73 70 68 68 68 68 68 67 67 66 65 64 62 61 60 59 59
81 81 80 80 80 79 78 77 76 75 74 73 72 73 73 74 75 76 77 77 77 77 76 74 70 68 67 67 67 68 68 67 65 65 64 63 61 60 58 58 57 57
80 79 79 79 78 77 76 75 73 72 71 71 72 72 73 74 76 77 77 77 76 74 71 67 66 66 66 66 67 67 67 65 64 63 62 61 59 58 57 56 56 56
79 78 78 77 76 75 73 72 71 70 71 71 72 73 74 75 76 77 76 75 72 68 65 64 66 67 66 66 67 67 66 64 63 62 61 59 58 57 56 55 55 56
78 77 76 74 73 72 71 70 69 70 71 72 73 74 75 76 76 75 73 69 65 63 63 65 66 66 66 66 66 66 65 63 62 61 60 58 57 56 55 55 55 55
77 75 72 71 70 70 69 69 69 70 71 73 74 75 75 75 73 70 66 63 62 63 64 65 65 66 66 66 66 65 64 62 61 60 59 57 56 55 55 55 55 55
73 71 70 69 69 69 68 69 70 71 72 74 74 75 74 71 67 63 61 61 62 64 65 65 65 66 66 66 65 64 63 62 60 59 58 56 56 55 55 55 56 56
70 69 68 68 68 68 69 70 71 72 73 74 74 73 69 64 61 60 60 62 63 64 65 65 65 66 66 65 64 63 62 61 60 58 57 56 56 55 55 56 57 57
68 68 68 68 68 69 70 71 72 73 74 73 71 67 62 59 59 60 61 62 64 65 66 65 65 65 65 64 63 63 62 60 58 57 57 56 56 56 56 56 57 58

ECMWFNIL_500_spd_045.txt.gz
Wind_Speed
45 47 48 50 51 52 53 54 56 58 59 60 60 61 61 61 61 62 63 64 64 66 67 68 69 71 74 76 78 80 81 82 82 83 83 82 82 81 81 80 79 78
49 51 52 53 53 54 55 57 59 61 62 62 62 62 62 62 63 64 65 66 66 67 69 70 72 74 77 79 81 82 83 83 83 83 83 82 81 80 79 79 78 76
52 54 55 55 55 56 57 60 62 64 64 64 63 63 63 64 65 66 67 68 68 70 71 73 75 78 80 81 82 83 83 83 83 82 82 81 80 79 78 77 76 75
56 57 56 56 56 58 60 63 65 66 65 65 65 65 65 66 67 68 69 70 71 72 74 76 78 80 81 82 83 83 83 83 82 82 81 80 79 78 77 76 75 74
58 58 58 58 58 61 64 66 66 66 65 66 66 67 68 68 70 71 71 72 73 75 77 79 80 82 82 83 83 83 83 82 82 81 80 79 77 76 76 75 74 73
60 60 59 60 61 63 66 67 66 66 67 67 68 69 70 71 72 72 73 74 76 77 79 81 82 83 83 83 83 83 82 82 81 80 79 78 76 75 74 74 73 73
61 61 61 62 63 65 66 67 67 68 68 69 70 70 71 72 73 74 74 76 78 80 81 82 83 83 83 83 83 83 82 81 81 80 78 77 76 75 74 74 75 75
61 61 62 63 64 66 67 68 69 69 70 70 71 72 72 74 75 75 76 78 80 82 83 83 83 84 83 83 82 82 81 81 80 79 77 76 75 75 76 76 77 78
61 62 63 65 66 68 69 70 70 70 70 71 72 73 74 75 75 76 78 80 82 83 83 84 84 84 83 82 81 81 81 80 79 77 76 76 76 77 78 79 80 79
62 64 65 66 68 69 70 70 70 70 71 72 74 75 76 76 76 78 80 82 84 84 84 84 84 83 82 81 81 80 80 79 78 77 76 77 78 79 80 80 79 76
63 64 65 66 68 69 70 70 71 72 73 74 76 76 76 77 78 80 82 84 84 84 84 84 84 82 81 80 80 79 79 78 77 77 77 78 79 80 80 78 74 71
63 63 65 67 68 70 71 71 72 73 75 76 76 76 77 78 80 82 84 84 85 85 85 84 83 81 80 79 78 78 78 77 77 78 78 79 80 79 76 72 69 69
63 65 66 68 69 71 72 73 73 75 76 76 76 76 78 80 82 83 84 85 85 85 84 83 82 80 79 78 77 77 77 78 78 78 79 79 78 74 70 68 68 69
65 66 68 69 71 72 73 73 74 75 75 76 76 77 79 81 83 84 84 85 85 84 83 82 80 79 78 77 77 77 78 78 79 79 79 76 72 68 68 68 68 69
66 68 69 70 71 72 73 73 74 74 75 76 77 79 80 82 83 84 84 84 84 83 82 80 79 78 77 77 77 78 78 79 79 79 75 70 66 66 67 68 69 69
67 69 70 71 72 72 72 73 73 74 76 77 78 80 81 82 83 84 83 83 83 82 80 78 77 77 77 77 78 78 79 79 78 75 69 65 65 66 67 68 69 69
68 70 71 71 72 72 72 72 74 75 76 78 80 81 81 82 83 83 82 82 81 79 78 77 76 76 77 77 78 79 79 78 74 68 64 64 65 66 67 68 69 69
69 70 71 71 71 71 72 73 74 76 78 79 80 81 81 82 82 82 81 81 79 77 77 76 76 76 77 78 78 79 77 73 68 64 63 64 66 66 67 68 68 68
70 70 71 71 71 71 72 74 76 77 79 80 80 81 82 82 82 81 80 79 77 76 76 76 76 77 78 78 79 77 73 67 63 62 63 65 66 67 67 67 67 66
70 70 70 71 71 72 74 75 77 78 79 79 80 81 81 81 80 80 78 76 75 75 75 76 77 78 78 78 77 73 67 63 62 62 64 65 66 67 66 66 66 65
69 70 70 71 71 73 75 76 77 78 78 79 80 80 80 79 78 77 75 74 74 75 75 76 77 78 78 76 72 67 63 62 62 63 64 65 66 66 66 65 65 64
69 69 70 71 73 75 76 76 76 77 79 79 79 79 78 77 75 74 73 74 74 75 75 77 78 78 76 71 67 63 62 62 62 63 65 65 65 65 64 64 64 63
69 70 71 73 74 75 75 76 76 77 78 78 78 77 76 74 73 73 73 74 74 75 76 77 77 75 71 66 63 63 63 63 63 64 65 65 64 64 64 63 62 61
70 71 73 74 75 75 75 76 77 77 77 77 76 74 73 72 72 73 73 74 75 76 76 76 73 70 66 63 63 63 63 63 64 65 65 64 64 63 63 62 61 60
72 73 74 74 75 75 75 76 76 76 75 74 73 72 71 72 72 73 74 75 75 76 75 72 68 65 64 63 63 64 64 64 65 65 64 64 63 63 62 61 60 60
73 74 74 74 75 75 75 75 75 74 73 72 71 71 71 72 73 74 74 75 75 74 71 67 63 63 63 64 64 65 65 65 65 65 64 63 63 62 61 60 59 59

ECMWFNIL_500_spd_048.txt.gz
Wind_Speed
42 43 43 43 43 44 45 46 48 50 52 53 54 56 57 58 59 60 61 61 62 63 65 65 65 65 66 67 67 68 69 70 71 72 74 76 78 79 81 82 83 84
44 44 45 45 45 47 49 50 52 54 56 57 57 58 60 61 62 62 62 62 64 65 66 66 66 67 67 68 69 69 69 70 72 74 76 78 80 82 83 84 84 84
46 46 47 48 49 51 53 54 56 57 59 60 60 61 62 62 62 62 63 64 66 67 67 67 67 68 69 70 70 70 70 71 73 76 78 80 82 83 84 85 84 84
47 48 50 51 53 54 56 58 59 60 61 61 62 63 63 62 63 63 64 66 68 68 68 68 68 69 70 71 71 71 71 73 76 78 80 81 83 85 85 85 84 83
49 50 52 54 55 57 58 59 60 61 61 62 63 63 63 63 64 65 66 67 69 69 69 68 69 70 71 72 72 72 72 75 78 80 81 83 85 85 85 84 83 82
51 53 54 56 57 58 59 60 61 61 62 62 63 63 64 65 65 66 67 68 69 69 69 69 70 71 72 73 73 73 74 77 79 81 83 84 85 85 85 84 82 81
53 54 55 56 57 58 60 60 61 61 62 62 63 64 65 65 65 66 68 69 69 69 69 70 71 72 73 74 74 75 76 78 81 83 84 85 86 85 84 83 82 80
54 54 55 56 57 59 59 60 60 61 62 63 64 64 64 65 66 67 68 68 69 69 70 71 72 73 74 75 76 76 78 80 83 84 84 85 85 84 83 82 81 80
54 55 56 57 58 59 59 60 61 62 63 64 64 64 64 65 66 67 68 68 69 70 71 72 73 74 75 76 77 78 80 83 84 84 84 85 84 83 82 81 80 80
55 57 58 59 59 60 61 61 62 63 64 64 64 64 64 65 67 67 68 69 70 71 72 73 74 74 75 77 79 80 82 84 85 84 84 84 83 82 81 80 80 80
58 59 60 61 61 62 62 62 63 64 64 63 63 63 65 66 67 68 69 70 72 73 73 73 74 75 76 78 80 82 83 84 84 84 83 83 82 81 80 80 81 82
61 61 61 61 62 61 62 62 63 63 63 63 63 64 65 66 68 69 71 72 73 73 73 74 74 76 78 80 82 83 84 84 83 83 82 82 81 80 80 81 82 82
60 60 60 60 60 61 62 62 62 63 63 63 64 64 66 67 69 71 72 73 73 73 74 74 76 77 79 81 82 83 83 83 82 82 81 81 81 80 81 81 82 82
57 57 58 59 60 61 62 62 62 63 63 64 64 65 67 69 71 73 73 73 73 73 74 76 77 79 81 82 82 83 83 82 81 81 81 80 80 81 81 81 82 82
56 57 59 60 61 62 62 62 63 64 64 64 65 66 69 71 73 73 73 73 73 74 75 77 78 80 81 82 82 82 81 80 80 80 80 80 80 80 81 81 81 82
58 59 60 62 62 62 62 63 64 64 64 65 67 68 70 72 73 73 73 73 74 75 77 78 79 80 81 82 82 81 80 79 79 79 79 79 80 80 81 81 81 81
60 61 63 63 63 63 63 64 64 65 66 67 69 70 71 72 73 73 73 74 75 77 78 79 80 80 81 81 81 80 79 79 79 78 79 79 80 80 81 81 80 78
62 63 63 62 62 62 64 65 67 68 69 69 70 71 72 73 73 73 74 75 76 77 78 79 80 81 81 81 80 79 79 79 78 78 78 79 79 80 81 80 78 75
62 62 61 61 62 64 66 68 70 70 70 70 71 71 72 73 73 74 75 76 77 78 79 80 80 81 80 80 79 79 79 78 78 78 78 78 80 80 80 79 76 72
62 62 61 63 64 66 69 71 71 71 71 71 71 71 72 73 74 75 76 76 77 78 79 80 80 80 80 80 79 79 78 78 77 77 78 79 80 80 79 76 73 70
63 63 64 65 67 70 71 72 71 71 71 71 71 72 73 74 75 75 76 76 77 78 79 79 79 79 79 79 79 78 78 77 77 77 78 79 79 79 77 74 71 69
65 66 67 68 70 72 72 71 71 71 71 71 72 72 73 74 75 75 76 77 78 79 79 78 78 79 79 78 78 78 77 77 77 77 78 78 78 76 74 71 69 68
68 69 69 71 72 73 72 72 72 72 71 72 72 73 74 74 75 75 76 77 78 78 78 78 78 78 78 78 77 77 77 77 77 78 78 77 75 73 71 69 68 67
71 71 71 73 74 74 74 73 72 72 72 72 73 73 74 74 75 76 77 77 77 77 77 77 77 77 77 77 77 77 78 78 77 78 77 75 72 70 69 68 67 67
72 72 73 75 76 75 74 73 72 72 72 72 73 74 74 75 76 76 76 76 76 76 76 76 76 76 77 77 77 78 78 78 77 77 75 72 69 68 67 67 66 67
73 73 74 75 74 73 72 71 71 72 72 73 73 74 75 75 76 76 76 76 76 75 75 75 75 75 76 77 77 78 78 77 77 75 72 69 68 67 66 66 66 66